Ephrata, WA
on Sunday, November 11, 2012

Sunday
Previous Day Next Day
Daily Summary
 ActualAverageRecord
Temperature
Mean Temperature °F 39°F  
Max Temperature 34°F 47°F 64°F (1990)
Min Temperature 20°F 30°F 10°F (1955)
Degree Days
Heating Degree Days 38 26  
Month to date heating degree days 236 264  
Since 1 July heating degree days 731 845  
Cooling Degree Days 0 0  
Month to date cooling degree days 0 0  
Year to date cooling degree days 837 772  
Moisture
Dew Point 26°F   
Average Humidity 91    
Maximum Humidity 100    
Minimum Humidity 81    
Precipitation
Precipitation 0.23 in 0.04 in 0.37 in (1951)
Month to date precipitation 0.30 0.35  
Year to date precipitation 6.16 5.90  
Wind
Wind Speed 4 mph   
Max Wind Speed 7 mph   
Max Gust Speed 8 mph   
Visibility 4 miles   
Events Fog , Snow   

Key: T is trace of precipitation, MM is missing value
Source: NWS Daily Summary
Time(PST)TemperatureDew PointHumidity Pressure Visibility Wind DirectionWind SpeedGust SpeedPrecipitationEvents Conditions
12:53 AM 21.9°F 19.9°F 92% 30.26 in 8.0 miles Calm Calm - N/A   Clear
1:53 AM 21.9°F 19.9°F 92% 30.26 in 9.0 miles North 3.5 mph - N/A   Clear
2:53 AM 21.0°F 19.0°F 92% 30.26 in 9.0 miles NE 4.6 mph - N/A   Clear
3:07 AM 19.4°F 17.6°F 93% 30.22 in 2.0 miles ENE 5.8 mph - N/A   Scattered Clouds
3:10 AM 19.4°F 17.6°F 93% 30.21 in 1.0 miles ENE 5.8 mph - N/A   Mist
3:17 AM 19.4°F 17.6°F 93% 30.22 in 0.5 miles NE 5.8 mph - N/A Fog Light Freezing Fog
3:26 AM 21.2°F 19.4°F 93% 30.22 in 0.2 miles ENE 4.6 mph - N/A Fog Light Freezing Fog
3:36 AM 21.2°F 19.4°F 93% 30.22 in 0.5 miles NE 4.6 mph - N/A Fog Light Freezing Fog
3:53 AM 21.0°F 19.0°F 92% 30.27 in 0.2 miles NNE 4.6 mph - N/A Fog Light Freezing Fog
4:12 AM 21.2°F 19.4°F 93% 30.23 in 0.5 miles North 5.8 mph - N/A Fog Light Freezing Fog
4:34 AM 23.0°F 21.2°F 93% 30.23 in 0.2 miles North 3.5 mph - N/A Fog Light Freezing Fog
4:53 AM 24.1°F 23.0°F 96% 30.28 in 0.5 miles Calm Calm - N/A Fog Light Freezing Fog
5:03 AM 24.8°F 23.0°F 93% 30.23 in 2.0 miles Calm Calm - N/A   Overcast
5:13 AM 24.8°F 23.0°F 93% 30.23 in 1.2 miles Calm Calm - N/A   Overcast
5:25 AM 24.8°F 23.0°F 93% 30.23 in 0.5 miles North 3.5 mph - N/A Fog Light Freezing Fog
5:45 AM 24.8°F 23.0°F 93% 30.24 in 0.2 miles North 3.5 mph - N/A Fog Light Freezing Fog
5:53 AM 25.0°F 23.0°F 92% 30.30 in 0.2 miles North 4.6 mph - N/A Fog Light Freezing Fog
6:07 AM 24.8°F 24.8°F 100% 30.24 in 0.5 miles North 3.5 mph - N/A Fog Light Freezing Fog
6:53 AM 26.1°F 25.0°F 96% 30.30 in 0.2 miles NNE 4.6 mph - N/A Fog Light Freezing Fog
7:53 AM 27.0°F 26.1°F 96% 30.31 in 0.2 miles ENE 3.5 mph - N/A Fog Light Freezing Fog
8:50 AM 26.6°F 26.6°F 100% 30.27 in 1.0 miles ENE 3.5 mph - N/A   Overcast
8:53 AM 28.0°F 26.1°F 92% 30.33 in 1.0 miles NE 3.5 mph - N/A   Overcast
9:37 AM 28.4°F 26.6°F 93% 30.28 in 0.2 miles NE 3.5 mph - N/A Fog Light Freezing Fog
9:58 AM 28.4°F 26.6°F 93% 30.29 in 3.0 miles NE 3.5 mph - N/A   Overcast
10:18 AM 28.4°F 26.6°F 93% 30.29 in 2.5 miles NNE 3.5 mph - N/A   Overcast
10:26 AM 28.4°F 26.6°F 93% 30.29 in 4.0 miles NE 3.5 mph - N/A   Overcast
10:53 AM 28.9°F 27.0°F 92% 30.34 in 5.0 miles Calm Calm - N/A   Overcast
11:53 AM 28.9°F 28.0°F 96% 30.33 in 7.0 miles NNE 3.5 mph - N/A   Overcast
12:53 PM 30.0°F 28.0°F 92% 30.35 in 6.0 miles North 3.5 mph - N/A   Overcast
1:53 PM 32.0°F 28.9°F 88% 30.34 in 9.0 miles NE 3.5 mph - N/A   Mostly Cloudy
2:15 PM 32.0°F 28.4°F 87% 30.29 in 9.0 miles NE 4.6 mph - N/A   Overcast
2:26 PM 32.0°F 28.4°F 87% 30.29 in 10.0 miles NE 3.5 mph - N/A   Overcast
2:53 PM 33.1°F 28.0°F 82% 30.34 in 10.0 miles ENE 4.6 mph - N/A   Overcast
3:39 PM 33.8°F 28.4°F 81% 30.29 in 10.0 miles NNE 4.6 mph - N/A   Overcast
3:53 PM 33.1°F 28.0°F 82% 30.35 in 10.0 miles NNE 4.6 mph - N/A   Overcast
4:53 PM 33.1°F 28.0°F 82% 30.34 in 10.0 miles North 5.8 mph - N/A   Overcast
5:30 PM 33.8°F 28.4°F 81% 30.29 in 10.0 miles NNW 3.5 mph - N/A   Overcast
5:53 PM 33.1°F 28.0°F 82% 30.34 in 10.0 miles North 4.6 mph - N/A   Overcast
6:09 PM 33.8°F 28.4°F 81% 30.29 in 10.0 miles NNW 4.6 mph - N/A   Overcast
6:53 PM 33.1°F 28.9°F 85% 30.33 in 10.0 miles North 5.8 mph - N/A   Overcast
7:19 PM 33.8°F 30.2°F 87% 30.28 in 3.0 miles North 5.8 mph - 0.00 in Snow Light Snow
7:37 PM 33.8°F 30.2°F 87% 30.28 in 1.5 miles North 5.8 mph - 0.00 in Snow Light Snow
7:44 PM 32.0°F 30.2°F 93% 30.28 in 1.2 miles North 5.8 mph - 0.00 in Snow Light Snow
7:53 PM 32.0°F 30.9°F 96% 30.32 in 1.2 miles NNW 5.8 mph - 0.00 in Snow Light Snow
8:22 PM 32.0°F 30.2°F 93% 30.28 in 0.8 miles North 4.6 mph - 0.03 in Snow Light Snow
8:49 PM 32.0°F 30.2°F 93% 30.27 in 0.8 miles North 3.5 mph - 0.05 in Snow Light Snow
8:53 PM 32.0°F 30.9°F 96% 30.32 in 0.8 miles North 3.5 mph - 0.05 in Snow Light Snow
9:06 PM 32.0°F 30.2°F 93% 30.27 in 0.8 miles North 3.5 mph - 0.01 in Snow Light Snow
9:14 PM 32.0°F 30.2°F 93% 30.27 in 1.0 miles North 3.5 mph - 0.02 in Snow Light Snow
9:53 PM 32.0°F 30.9°F 96% 30.31 in 0.8 miles NNW 3.5 mph - 0.04 in Snow Light Snow
10:40 PM 32.0°F 30.2°F 93% 30.26 in 1.0 miles North 4.6 mph - 0.04 in Snow Light Snow
10:50 PM 32.0°F 30.2°F 93% 30.26 in 0.8 miles North 3.5 mph - 0.05 in Snow Light Snow
10:53 PM 32.0°F 30.9°F 96% 30.30 in 0.8 miles North 4.6 mph - 0.06 in Snow Light Snow
11:53 PM 32.0°F 30.9°F 96% 30.29 in 0.8 miles North 3.5 mph - 0.07 in Snow Light Snow
Moon Phase
Nov. 11 Nov. 13 Nov. 20 Nov. 28 Dec. 06
Sunrise:06:57 AM (PST) Moon Rise:04:09 AM (PST)11/11
Sunset:04:26 PM (PST) Moon Set:02:59 PM (PST)11/11

Copyright © 2014 The Weather Underground, Inc.